Location: Zagreb
(45.8000°N, 16.0000°E)
Time: 19:46:42
(UTC+02:00)

A-11 Canister half - Pass Details

Date: 16 August 2022
Orbit: 1524 x 1684 km, 47.3° (Epoch: 05 October)

Event Time Altitude Azimuth Distance (km) Brightness Sun altitude
Rises 04:45:27 0° 221° (SW) 4,872 - -11.9°
Reaches altitude 10° 04:48:39 10° 217° (SW) 3,903 - -11.4°
Exits shadow 04:48:52 11° 217° (SW) 3,840 10.5 -11.4°
Maximum altitude 04:58:17 54° 144° (SE) 1,985 9.6 -10.0°
Drops below altitude 10° 05:08:01 10° 71° (ENE) 3,949 12.7 -8.5°
Sets 05:11:16 0° 67° (ENE) 4,933 14.0 -8.0°
